Weather in Shivilig

Russia / Tyva Republic     52°14′24″N   93°42′37″E
temp.,
°C
wind,
m/s
gust,
m/s
humid.,
%
clouds,
%
prec.,
mm/h
press.,
hPa
HPBL,
m
5 march, fri
fri501:00−17ene22830 0.0 103120
04:00−17ene228638 0.0 103020
07:00−18e229061 0.0 103020
10:00−13se119171 0.0 102789
13:00−10se238386 0.0 1024321
16:00−9se1277100 0.0 1023313
19:00−10se1185100 0.0 102621
22:00−12n1189100 0.0 103021
6 march, sat
sat601:00−15e1198100 0.1 103420
04:00−14ene129694 0.0 103420
07:00−14ese129697 0.1 103421
10:00−12se1293100 0.0 1031147
13:00−9se2286100 0.0 1028316
16:00−8se1286100 0.0 1025287
19:00−12e1186100 0.0 102621
22:00−13e1183100 0.0 102621
7 march, sun
sun701:00−14e1184100 0.0 102620
04:00−16e1189100 0.0 102520
07:00−17e119394 0.0 102620
10:00−12sse1191100 0.0 1025114
13:00−8sse2283100 0.0 1024256
16:00−7se1183100 0.0 1023217
19:00−9ene1188100 0.0 102621
22:00−12ene0184100 0.0 102821
8 march, mon
mon801:00−14ne118692 0.0 102921
04:00−15ene128142 0.0 102920
07:00−15e118267 0.0 103020
10:00−11se1185100 0.0 1027100
13:00−7sse228380 0.0 1024216
16:00−6se118347 0.0 1022199
19:00−12e118625 0.0 102321
22:00−13ene128528 0.0 102421
9 march, tue
tue901:00−12e118364 0.0 102421
04:00−12ene0087100 0.0 102621
07:00−13ene0184100 0.0 102821
10:00−9s1186100 0.0 102899
13:00−6s118798 0.0 1028243
16:00−5sse118473 0.0 1027181
19:00−10e118972 0.0 102921
22:00−10ene118989 0.0 102921